Location: Alto Pass Reservoir
(37.5801°N, 89.3084°W)
Time: 11:47:56
(UTC+00:00)

NEOSSAT - Pass Details

Date: 04 October 2022
Orbit: 767 x 784 km, 98.4° (Epoch: 26 November)

Event Time Altitude Azimuth Distance (km) Brightness Sun altitude
Rises 01:39:43 0° 1° (N) 3,281 ? -24.9°
Reaches altitude 10° 01:42:17 10° 350° (N) 2,349 ? -25.4°
Maximum altitude 01:46:41 29° 292° (WNW) 1,412 ? -26.3°
Drops below altitude 10° 01:51:04 10° 233° (SW) 2,335 ? -27.1°
Sets 01:53:38 0° 223° (SW) 3,258 ? -27.6°
